Dewpoint
52 51 51 51 50 49 51 51 52 52 50 50 50 51 51 50 49 48 48 47 47 46 46 46 48 51 47 38 37 42 53 50 48 54 53 44 47 46 43 43 44 40 42 43 46 49 50
52 51 51 51 50 49 50 51 51 52 50 49 49 49 49 49 48 47 47 47 47 47 46 47 50 48 42 36 40 40 48 46 50 54 52 46 45 47 45 43 42 42 40 42 47 47 48
51 51 51 51 50 49 48 50 51 51 50 49 49 49 48 48 47 47 47 46 46 48 47 46 48 45 41 38 41 41 48 49 51 52 49 50 44 46 43 42 43 40 39 39 39 41 40
51 51 51 51 50 49 49 48 50 51 52 50 49 49 49 48 47 47 46 46 46 46 46 46 45 43 37 40 38 39 45 49 51 53 50 51 47 43 43 43 41 37 36 34 36 38 38
51 51 50 50 50 49 49 48 48 48 51 51 50 49 48 49 48 47 47 46 45 46 46 45 43 40 34 40 36 36 41 43 48 52 53 50 47 43 41 39 37 38 33 33 34 37 37
50 50 50 50 49 51 51 50 48 48 47 48 49 51 49 48 49 49 49 47 45 45 44 44 41 36 35 34 39 37 41 46 46 50 49 48 45 39 38 39 31 32 32 32 31 35 36
50 50 50 49 49 49 48 49 49 50 48 47 47 49 50 50 49 50 48 43 38 35 39 34 34 34 32 36 43 45 46 42 45 46 38 45 38 35 35 37 34 34 30 32 33 35 34
50 50 49 49 49 49 49 49 47 47 50 48 47 47 49 50 49 50 44 37 39 38 34 38 37 35 35 41 39 44 44 37 42 37 39 40 35 36 37 38 35 33 31 30 30 33 34
49 49 48 49 49 49 49 49 49 48 47 48 46 46 48 49 50 44 42 42 45 43 36 38 39 39 42 43 38 41 43 39 40 37 37 36 36 38 36 36 35 31 31 28 28 31 30
49 49 48 49 49 49 49 48 48 48 48 48 47 46 48 48 45 42 40 44 45 44 31 35 37 41 41 42 39 46 45 43 41 37 38 37 39 37 36 34 32 29 28 28 30 29 27
49 49 49 48 49 50 49 49 49 48 48 48 47 47 48 47 42 41 42 44 43 41 20 36 40 45 42 39 40 41 47 42 38 39 38 35 37 36 35 34 29 28 31 31 31 28 27
48 48 48 48 48 47 49 48 48 48 48 48 46 47 48 46 46 44 44 43 43 24 18 33 38 36 36 37 39 42 42 44 42 38 40 38 40 39 36 37 32 33 31 31 30 27 22
48 48 48 47 48 47 46 47 47 47 47 47 46 48 46 46 42 44 44 42 24 21 33 34 37 35 35 35 37 36 36 38 36 31 33 37 37 39 39 34 36 31 27 21 23 20 20
47 47 46 47 47 46 46 46 47 46 47 47 48 49 48 47 44 44 43 35 19 30 34 38 38 38 35 38 38 37 37 36 37 34 35 31 31 37 38 35 32 30 26 22 17 19 20
46 47 46 46 46 46 47 46 46 47 48 48 47 44 45 46 45 44 38 20 21 26 32 35 34 33 36 38 38 37 35 35 37 36 31 28 29 37 38 38 37 33 30 28 22 20 17
46 46 46 46 46 47 47 47 47 47 48 47 41 41 42 46 44 42 30 26 28 35 36 36 29 28 28 34 36 36 36 37 37 37 37 32 29 37 37 39 37 34 32 26 24 15 14
45 45 45 46 47 47 47 46 47 47 46 46 41 38 43 46 45 38 24 26 35 37 37 33 30 27 28 28 32 31 34 37 38 37 36 33 31 33 37 37 34 33 32 30 30 26 19
44 45 46 46 46 47 46 46 47 46 47 42 37 35 44 46 39 33 28 34 38 36 36 35 32 31 28 28 28 29 29 32 38 35 35 34 34 31 34 38 38 35 33 30 29 23 21
45 45 46 46 46 46 45 46 47 46 45 40 38 36 44 44 29 30 33 36 37 35 33 32 31 31 30 27 27 29 30 32 36 34 33 32 30 25 29 33 36 36 35 33 29 27 20
44 45 46 46 46 46 46 47 47 46 45 41 37 34 37 42 40 35 33 32 34 37 35 33 31 30 29 26 29 29 30 33 32 32 38 35 30 24 23 25 32 32 34 34 31 23 24
43 45 46 45 46 46 46 46 47 45 43 39 35 35 36 34 35 35 36 35 33 33 35 33 31 30 29 25 27 29 31 31 32 36 33 30 25 25 27 30 29 29 31 33 32 30 29
44 45 45 45 46 46 46 46 45 46 39 31 31 33 35 34 34 33 36 35 35 35 34 33 33 34 32 32 30 27 30 30 28 32 31 31 24 25 21 27 28 27 28 31 33 33 32
46 45 45 46 46 46 46 46 46 45 39 31 32 33 35 32 27 33 33 34 35 36 36 37 38 35 32 33 34 35 30 30 29 29 29 30 26 20 17 26 25 22 26 27 29 29 30
46 46 46 45 46 46 45 45 45 45 40 33 33 32 28 24 24 24 22 26 25 32 34 36 40 35 36 40 37 34 31 30 30 31 31 30 26 22 17 22 13 21 27 27 27 29 29
46 46 45 46 45 45 45 45 45 45 45 36 35 33 28 21 21 17 21 23 29 33 35 38 40 41 42 38 31 29 29 29 29 30 30 31 30 23 20 18 21 24 28 27 26 25 28
46 46 46 45 45 45 46 45 45 45 45 38 36 35 31 24 22 24 22 29 27 29 33 38 39 37 39 37 33 26 24 25 27 29 30 31 30 26 26 22 20 24 29 29 29 25 31
45 45 46 45 45 45 45 45 45 45 45 40 38 36 32 27 28 28 24 25 26 22 24 32 27 34 37 33 30 27 23 28 26 26 27 30 29 28 26 26 24 26 30 33 25 25 34
45 45 46 47 45 44 45 45 45 44 44 40 38 38 33 28 29 29 28 25 27 26 23 26 31 35 36 30 29 28 27 26 24 25 26 25 24 26 28 26 19 31 34 30 32 36 35
46 47 47 48 46 45 44 44 45 45 45 42 36 40 39 32 29 34 33 33 32 30 27 26 25 33 34 34 35 34 32 28 25 24 27 25 26 25 27 26 27 32 33 34 35 35 36
Lifted_Index
15 15 16 16 16 15 14 11 9 8 7 7 5 4 4 3 2 1 -0 -0 -0 -0 -1 -1 -1 -0 1 3 4 3 3 3 2 0 0 1 0 -1 -1 -1 -0 0 1 1 1 1 1
15 15 16 16 16 15 14 11 9 8 7 6 6 5 4 3 2 1 -0 -1 -1 -1 -1 -1 -1 0 1 2 3 3 3 2 1 0 0 0 0 -0 -1 -1 -0 0 1 1 2 2 2
15 15 16 16 16 15 14 12 10 8 7 6 6 5 5 4 4 2 0 -1 -1 -1 -1 -1 -0 0 1 2 3 3 2 2 1 0 0 0 0 -0 -0 -0 -0 0 1 2 2 2 2
15 15 16 16 16 15 14 12 10 8 7 6 6 5 5 5 4 3 2 0 -1 -1 -1 -0 0 1 1 1 2 3 3 2 1 1 0 -0 0 0 0 -0 -0 -0 1 2 2 2 2
15 15 16 16 16 15 14 12 11 9 7 6 6 5 5 5 5 4 3 1 0 -1 -0 -0 0 1 1 1 2 3 3 2 1 1 0 0 0 0 0 0 0 0 1 2 2 2 2
15 15 16 16 16 15 14 12 11 10 8 7 6 5 5 5 4 4 4 3 2 1 0 0 1 1 1 1 1 2 3 2 2 1 1 0 1 1 1 1 1 1 1 1 1 1 2
15 15 16 16 16 15 14 13 11 10 9 8 7 6 5 5 5 4 4 5 4 3 2 1 1 1 1 1 1 1 2 2 2 1 1 1 1 2 1 1 1 1 1 1 1 1 1
15 15 16 16 16 15 14 13 12 10 9 9 8 7 6 5 5 5 6 6 5 4 3 2 1 1 1 1 0 1 1 2 2 2 2 1 1 2 2 1 1 1 1 0 0 0 0
15 16 16 17 16 15 15 13 12 11 10 9 9 8 7 6 6 6 7 7 6 5 3 2 1 1 0 0 1 1 2 2 2 2 2 1 1 1 1 1 1 1 1 1 1 1 1
16 16 16 17 16 16 15 14 13 12 11 10 9 9 8 7 7 7 7 7 7 5 3 2 2 1 1 1 1 1 2 1 2 2 2 1 1 1 1 2 2 1 1 1 1 1 1
16 16 16 17 17 16 16 15 14 12 11 10 10 9 8 7 7 7 7 7 7 5 2 2 2 2 2 1 1 1 1 1 1 1 2 1 1 1 1 2 2 2 2 2 2 2 1
16 16 17 17 17 17 16 15 14 13 12 11 10 9 8 7 7 7 8 7 5 3 2 2 2 2 2 2 1 1 1 1 1 1 1 1 1 1 1 2 2 2 2 2 2 1 1
16 16 17 17 17 17 17 16 15 14 13 12 10 9 7 7 7 7 7 6 4 3 2 2 2 2 2 2 2 1 1 1 1 1 1 1 1 1 1 2 2 2 2 2 1 1 1
16 17 17 18 18 18 17 17 16 15 14 12 10 8 7 7 7 7 6 5 3 3 2 2 2 1 1 1 1 1 1 1 2 1 1 1 1 1 1 1 1 2 2 2 1 1 1
17 17 18 18 18 18 17 17 17 16 15 13 10 8 6 7 7 6 5 4 3 3 3 2 2 1 1 1 1 1 1 1 1 2 1 1 1 1 1 1 1 1 2 2 1 1 1
17 17 18 18 18 18 18 18 17 17 15 13 9 7 6 6 6 5 4 4 3 3 3 2 2 2 1 1 1 1 1 2 2 2 2 2 2 1 1 1 1 1 1 2 2 1 1
17 17 18 18 18 18 18 18 18 17 15 12 8 6 6 6 5 4 4 4 3 3 3 3 2 2 2 2 2 2 2 2 2 2 2 2 2 2 2 1 1 1 1 2 1 1 1
17 17 17 17 18 18 18 18 18 17 15 11 8 6 5 5 4 4 3 3 3 3 3 3 3 3 2 2 2 2 2 2 2 2 2 2 2 2 2 2 2 2 1 1 1 1 1
17 17 17 17 18 18 18 18 18 17 15 11 8 6 5 4 3 3 3 3 2 3 3 4 3 3 3 3 3 3 3 3 3 2 2 2 2 1 1 1 2 2 1 1 1 1 1
17 17 17 17 17 18 18 18 18 17 16 12 9 6 5 3 3 3 3 2 2 2 3 3 3 3 3 3 3 3 3 3 3 3 3 3 2 2 1 1 2 1 1 1 1 1 1
17 17 17 17 17 17 17 17 18 18 17 14 10 7 5 4 3 3 2 2 2 2 2 3 3 3 3 3 3 3 3 3 3 3 3 3 3 3 2 2 2 2 2 2 2 2 2
16 16 17 17 17 17 17 17 18 18 18 15 11 8 5 3 3 2 2 2 2 2 2 2 3 3 3 3 3 3 3 3 3 3 3 3 3 3 3 3 3 3 2 2 2 2 2
16 16 16 17 17 17 17 17 17 18 18 16 13 9 5 3 3 2 2 2 2 2 2 2 2 2 3 3 3 3 3 3 3 3 3 3 4 3 3 3 3 3 3 3 3 3 3
15 16 16 16 17 17 17 17 17 18 17 16 13 9 6 4 3 2 2 2 2 2 2 2 2 2 2 3 3 3 3 2 3 3 3 3 3 3 3 3 2 3 3 4 4 4 3
15 15 15 16 17 17 16 16 16 17 17 16 13 10 7 5 4 4 3 3 2 2 2 2 2 2 2 3 3 3 2 2 2 3 3 3 3 3 3 2 2 2 3 3 4 4 4
15 15 15 15 16 16 16 16 16 16 17 16 13 11 9 7 6 6 5 4 3 3 2 2 2 2 2 2 2 2 2 2 2 3 3 3 3 3 2 2 2 2 3 3 3 3 3
14 14 14 14 15 16 16 15 15 16 16 16 14 12 10 9 8 8 7 6 6 4 3 3 3 3 2 2 2 2 2 2 2 2 3 3 3 3 3 2 2 2 2 2 2 2 2
12 12 12 13 14 15 15 15 15 15 16 15 14 13 11 10 10 9 9 8 8 7 5 4 3 3 3 3 2 2 2 2 2 2 2 3 3 3 3 3 3 3 3 2 2 2 2
11 11 11 12 13 14 15 15 15 15 15 15 14 13 12 11 11 11 10 10 9 9 7 5 4 4 3 3 3 3 3 2 2 2 2 3 3 3 3 3 3 3 3 2 2 2 2